GW2028 Weather Reports


time (UTC)temp
F
wind
direction
speed
knots
gust
knots
rain 1hr
in
rain 24hr
in
rain mn
in
humidity
%
barometer
mb
20260506091503 47 307 0.9 1.7 0.04 1.01 0.16 95 1012.5
20260506091003 47 307 0.0 1.7 0.05 1.01 0.16 95 1012.5
20260506090503 47 0 0.0 0.0 0.05 1.01 0.16 95 1012.4
20260506090003 47 0 0.0 0.0 0.06 1.01 0.16 95 1012.2
20260506085503 47 0 0.0 0.0 0.06 1.01 0.16 95 1012.1
20260506085003 47 0 0.0 0.0 0.07 1.01 0.16 95 1011.9
20260506084503 47 0 0.0 0.0 0.07 1.01 0.16 95 1012.1
20260506084003 47 0 0.0 0.0 0.07 1.00 0.15 96 1012.0
20260506083503 47 0 0.0 0.0 0.07 1.00 0.15 96 1012.2
20260506083003 47 0 0.0 0.0 0.07 0.99 0.14 95 1012.5
20260506082503 47 0 0.0 0.0 0.07 0.99 0.14 95 1012.7
20260506082003 47 0 0.0 0.0 0.06 0.98 0.13 95 1012.9
20260506081503 47 0 0.0 0.0 0.05 0.97 0.12 95 1012.8
20260506081003 47 0 0.0 0.0 0.05 0.96 0.11 95 1012.8
20260506080718 47 0 0.0 0.0 0.05 0.96 0.11 95 1012.7
20260506073503 47 0 0.0 0.0 0.02 0.93 0.08 95 1012.4
20260506073003 47 0 0.0 0.0 0.01 0.92 0.07 95 1012.3
20260506072503 47 0 0.0 0.0 0.01 0.92 0.07 95 1012.3
20260506072003 47 0 0.0 0.0 0.01 0.92 0.07 95 1012.4
20260506071503 46 0 0.0 0.0 0.01 0.92 0.07 95 1012.4
20260506071003 46 0 0.0 0.0 0.01 0.91 0.06 95 1012.4
20260506070503 46 0 0.0 0.0 0.01 0.91 0.06 95 1012.4
20260506062003 46 0 0.0 0.0 0.03 0.91 0.06 95 1012.5
20260506061717 46 0 0.0 0.0 0.03 0.91 0.06 95 1012.5
20260506061003 46 0 0.0 0.0 0.03 0.90 0.05 95 1012.5
20260506060717 46 0 0.0 0.0 0.03 0.90 0.05 95 1012.5
20260506051003 47 0 0.0 0.0 0.02 0.87 0.02 95 1013.0
20260506050717 47 307 0.0 1.7 0.02 0.87 0.02 95 1013.0
20260506045003 47 0 0.0 0.0 0.03 0.87 0.02 95 1013.1
20260506044503 47 0 0.0 0.0 0.03 0.87 0.02 95 1013.2
20260506044003 47 0 0.0 0.0 0.04 0.87 0.02 95 1013.2
20260506043503 48 307 0.0 0.9 0.03 0.86 0.01 95 1013.3
20260506043218 48 307 0.0 1.7 0.04 0.86 0.01 95 1013.3
20260506042717 48 307 0.0 1.7 0.04 0.86 0.01 95 1013.3
20260506042218 48 0 0.0 0.0 0.05 0.86 0.01 95 1013.4
20260506041503 48 0 0.0 0.0 0.06 0.86 0.01 95 1013.6
20260506041003 48 0 0.0 0.0 0.06 0.85 0.00 95 1013.7
20260506040503 49 0 0.0 0.0 0.07 0.85 0.00 95 1013.6
20260506040004 49 307 0.0 0.9 0.08 0.85 0.00 95 1013.7
20260506035717 49 307 0.0 0.9 0.08 0.85 0.85 95 1013.7
20260506035003 49 307 0.0 0.9 0.09 0.84 0.84 95 1013.6
20260506034503 49 307 0.0 1.7 0.10 0.84 0.84 95 1013.8
20260506034003 49 307 0.0 1.7 0.10 0.83 0.83 95 1013.8
20260506033503 49 0 0.0 0.0 0.11 0.83 0.83 95 1013.7
20260506033217 49 0 0.0 0.0 0.11 0.82 0.82 95 1013.7
20260506032503 49 0 0.0 0.0 0.12 0.82 0.82 95 1013.6
20260506032003 49 0 0.0 0.0 0.12 0.81 0.81 95 1013.6
20260506031503 49 0 0.0 0.0 0.12 0.80 0.80 95 1013.7
20260506031003 50 0 0.0 0.0 0.12 0.79 0.79 95 1013.8
20260506030503 50 0 0.0 0.0 0.12 0.78 0.78 95 1013.6
20260506030003 49 0 0.0 0.0 0.12 0.77 0.77 95 1013.6
20260506025503 50 0 0.0 0.0 0.13 0.77 0.77 95 1013.3
20260506025003 50 0 0.0 0.0 0.11 0.75 0.75 95 1013.4
20260506024503 50 0 0.0 0.0 0.11 0.74 0.74 95 1013.2
20260506024003 50 0 0.0 0.0 0.10 0.73 0.73 95 1013.2
20260506023718 50 0 0.0 0.0 0.10 0.73 0.73 95 1013.3
20260506023217 50 0 0.0 0.0 0.08 0.71 0.71 95 1013.2
20260506022503 50 0 0.0 0.0 0.08 0.70 0.70 95 1013.3
20260506022003 50 0 0.0 0.0 0.07 0.69 0.69 95 1013.3
20260506021503 50 0 0.0 0.0 0.06 0.68 0.68 95 1013.3
20260506021003 50 0 0.0 0.0 0.05 0.67 0.67 95 1013.3
20260506020503 50 0 0.0 0.0 0.04 0.66 0.66 95 1013.3
20260506020217 50 0 0.0 0.0 0.05 0.66 0.66 95 1013.3
20260506015503 50 307 0.0 0.9 0.03 0.64 0.64 95 1013.3
20260506015217 50 307 0.0 1.7 0.03 0.64 0.64 95 1013.3
20260506014503 50 307 0.0 1.7 0.03 0.63 0.63 95 1013.2
20260506014003 50 0 0.0 0.0 0.04 0.63 0.63 95 1013.1
20260506013503 50 0 0.0 0.0 0.04 0.63 0.63 95 1013.0
20260506013003 50 0 0.0 0.0 0.04 0.63 0.63 95 1012.9
20260506012503 50 0 0.0 0.0 0.03 0.62 0.62 95 1012.9
20260506012217 50 0 0.0 0.0 0.03 0.62 0.62 95 1012.9
20260506011718 50 0 0.0 0.0 0.03 0.62 0.62 94 1012.9
20260506011003 50 307 0.0 1.7 0.03 0.62 0.62 94 1012.9
20260506010718 50 307 0.0 1.7 0.03 0.62 0.62 94 1012.9
20260506010216 50 307 0.0 1.7 0.02 0.61 0.61 94 1012.7
20260506005503 50 0 0.0 0.0 0.02 0.61 0.61 95 1012.8
20260506005003 50 307 0.0 1.7 0.01 0.60 0.60 95 1012.8
20260506004503 50 307 0.0 1.7 0.02 0.60 0.60 94 1012.7
20260506004003 50 0 0.0 0.0 0.01 0.59 0.59 94 1012.6
20260506003503 50 0 0.0 0.0 0.02 0.59 0.59 94 1012.7
20260506003003 50 0 0.0 0.0 0.02 0.59 0.59 94 1012.6
20260506002503 50 0 0.0 0.0 0.03 0.59 0.59 94 1012.6
20260506002003 50 307 0.0 1.7 0.04 0.59 0.59 94 1012.6
20260506001503 50 307 0.0 1.7 0.06 0.59 0.59 94 1012.4
20260506001003 50 307 0.9 2.6 0.08 0.59 0.59 94 1012.3
20260506000503 50 307 0.9 2.6 0.10 0.59 0.59 94 1012.3
20260506000003 50 307 0.9 2.6 0.11 0.59 0.59 94 1012.4
20260505235503 50 307 0.0 2.6 0.11 0.59 0.59 94 1012.6
20260505235003 50 307 0.9 2.6 0.12 0.59 0.59 94 1012.6
20260505234503 50 306 0.9 3.5 0.11 0.58 0.58 94 1013.0
20260505234003 50 290 0.9 4.3 0.12 0.58 0.58 94 1012.9
20260505233503 50 277 0.9 4.3 0.13 0.57 0.57 94 1012.9
20260505233003 50 263 0.0 0.9 0.15 0.57 0.57 94 1012.9
20260505232717 50 263 0.0 1.7 0.16 0.57 0.57 94 1013.0
20260505232218 50 263 0.0 2.6 0.16 0.56 0.56 94 1013.0
20260505231503 50 263 0.0 2.6 0.15 0.53 0.53 94 1013.3
20260505231003 50 263 0.0 0.9 0.14 0.51 0.51 94 1013.0
20260505230503 50 263 0.0 1.7 0.13 0.49 0.49 94 1012.7
20260505230003 50 263 0.0 1.7 0.14 0.48 0.48 94 1012.8
20260505225503 50 263 0.0 1.7 0.15 0.48 0.48 94 1012.9
20260505225003 50 263 0.0 0.9 0.14 0.47 0.47 94 1012.9
20260505224503 50 263 0.9 1.7 0.15 0.47 0.47 94 1013.0
20260505224003 50 263 0.9 1.7 0.15 0.46 0.46 94 1013.2
20260505223503 50 263 0.0 1.7 0.15 0.44 0.45 94 1013.0
20260505223218 50 0 0.0 0.0 0.14 0.43 0.43 94 1012.9
20260505222716 50 263 0.0 0.9 0.13 0.41 0.41 94 1013.0
20260505222003 50 263 0.0 1.7 0.12 0.39 0.39 94 1012.7
20260505221503 50 263 0.9 2.6 0.12 0.38 0.38 93 1013.0
20260505221003 50 263 0.0 2.6 0.13 0.37 0.37 93 1013.0
20260505220503 50 263 0.0 2.6 0.13 0.36 0.36 93 1012.8
20260505220003 50 263 0.9 2.6 0.13 0.34 0.34 93 1012.9
20260505215503 50 263 0.0 1.7 0.12 0.33 0.33 93 1012.7
20260505215003 50 0 0.0 0.0 0.13 0.33 0.33 93 1012.7
20260505214716 50 0 0.0 0.0 0.13 0.32 0.32 93 1012.9
20260505214003 50 263 0.0 2.6 0.13 0.31 0.31 93 1012.9
20260505213503 50 263 0.9 2.6 0.13 0.29 0.29 92 1012.8
20260505213003 51 263 0.9 2.6 0.15 0.29 0.29 92 1013.1
20260505212503 51 263 0.0 2.6 0.15 0.28 0.28 93 1012.7
20260505212003 51 263 0.9 3.5 0.15 0.27 0.27 93 1012.7
20260505211503 51 263 0.9 5.2 0.15 0.26 0.26 93 1012.5
20260505211003 52 263 0.9 5.2 0.14 0.24 0.24 93 1012.7
20260505210503 52 263 0.9 2.6 0.14 0.23 0.23 92 1012.7
20260505210003 52 263 0.9 2.6 0.13 0.21 0.22 92 1012.6
20260505205503 52 263 1.7 5.2 0.15 0.21 0.21 92 1012.6
20260505205217 53 263 1.7 7.0 0.14 0.20 0.20 92 1012.6
20260505204503 53 263 1.7 7.0 0.16 0.19 0.19 92 1012.4
20260505204217 53 263 1.7 5.2 0.15 0.18 0.18 92 1012.4
20260505203503 54 263 1.7 7.0 0.14 0.16 0.16 91 1012.5
20260505203003 54 264 1.7 5.2 0.13 0.14 0.14 92 1012.3
20260505202718 55 264 1.7 5.2 0.12 0.13 0.13 92 1012.2
20260505202003 55 264 1.7 7.8 0.11 0.12 0.12 92 1012.2
20260505201503 55 264 2.6 7.8 0.11 0.11 0.11 91 1012.2
20260505201003 55 264 1.7 3.5 0.10 0.10 0.10 91 1012.3
20260505200503 55 264 0.9 3.5 0.09 0.09 0.09 90 1012.2
20260505200003 55 264 1.7 3.5 0.08 0.08 0.08 90 1012.4
20260505195503 56 264 1.7 3.5 0.06 0.06 0.06 89 1012.5
20260505195003 56 264 0.9 2.6 0.05 0.05 0.05 89 1012.4
20260505194503 56 264 0.9 2.6 0.03 0.03 0.03 89 1012.4
20260505194003 56 264 0.9 2.6 0.02 0.02 0.02 88 1012.4
20260505193503 57 264 0.9 2.6 0.02 0.02 0.02 88 1012.4
20260505193003 57 264 0.9 2.6 0.01 0.01 0.01 87 1012.4
20260505192503 57 264 0.9 3.5 0.01 0.01 0.01 86 1012.3
20260505192003 57 264 1.7 6.1 0.01 0.01 0.01 86 1012.3
20260505191503 57 264 1.7 6.1 0.00 0.00 0.00 85 1012.4
20260505191003 58 264 1.7 6.1 0.00 0.00 0.00 85 1012.3
20260505190503 58 264 1.7 5.2 0.00 0.00 0.00 84 1012.3
20260505190003 58 274 0.9 3.5 0.00 0.00 0.00 84 1012.3
20260505185503 59 312 1.7 7.8 0.00 0.00 0.00 82 1012.2
20260505185003 59 297 2.6 7.8 0.00 0.00 0.00 81 1012.4
20260505184717 59 266 1.7 5.2 0.00 0.00 0.00 82 1012.5
20260505184003 59 265 1.7 6.1 0.00 0.00 0.00 81 1012.4
20260505183503 59 265 1.7 6.1 0.00 0.00 0.00 81 1012.4
20260505183003 59 265 1.7 6.1 0.00 0.00 0.00 82 1012.4
20260505182503 59 265 1.7 6.1 0.00 0.00 0.00 82 1012.4
20260505182218 59 281 1.7 3.5 0.00 0.00 0.00 82 1012.4
20260505181503 59 340 2.6 7.8 0.00 0.00 0.00 81 1012.4
20260505181218 60 328 2.6 7.8 0.00 0.00 0.00 80 1012.3
20260505180717 60 269 1.7 6.1 0.00 0.00 0.00 81 1012.3
20260505180003 60 265 2.6 7.8 0.00 0.00 0.00 80 1012.1
20260505175503 60 256 2.6 7.0 0.00 0.00 0.00 80 1012.1
20260505175003 60 257 2.6 7.0 0.00 0.00 0.00 80 1012.1
20260505174717 60 263 2.6 6.1 0.00 0.00 0.00 79 1012.1
20260505174218 61 266 2.6 7.0 0.00 0.00 0.00 79 1012.0
20260505173503 61 266 2.6 9.6 0.00 0.00 0.00 78 1012.0
20260505173218 61 267 1.7 9.6 0.00 0.00 0.00 78 1012.0
20260505172503 61 267 2.6 6.1 0.00 0.00 0.00 79 1011.8
20260505172003 61 267 2.6 6.1 0.00 0.00 0.00 78 1011.9
20260505171503 61 268 2.6 7.0 0.00 0.00 0.00 78 1011.9
20260505171003 61 269 2.6 7.0 0.00 0.00 0.00 78 1011.8
20260505170503 61 272 2.6 6.1 0.00 0.00 0.00 77 1011.8
20260505170003 61 270 2.6 9.6 0.00 0.00 0.00 77 1011.8
20260505165503 62 266 2.6 9.6 0.00 0.00 0.00 76 1011.7
20260505165217 62 265 2.6 7.0 0.00 0.00 0.00 76 1011.8
20260505164503 62 265 2.6 7.0 0.00 0.00 0.00 76 1011.7
20260505164003 62 265 2.6 10.4 0.00 0.00 0.00 76 1011.7
20260505163503 62 265 3.5 10.4 0.00 0.00 0.00 75 1011.6
20260505163003 62 268 4.3 8.7 0.00 0.00 0.00 74 1011.5
20260505162503 63 273 4.3 9.6 0.00 0.00 0.00 73 1011.5
20260505162003 64 296 5.2 16.5 0.00 0.00 0.00 70 1011.6
20260505161503 65 305 5.2 16.5 0.00 0.00 0.00 68 1011.6
20260505161217 66 305 5.2 12.2 0.00 0.00 0.00 68 1011.6
20260505160503 66 280 5.2 14.8 0.00 0.00 0.00 67 1011.5
20260505153217 68 254 3.5 7.0 0.00 0.00 0.00 63 1010.6
20260505152718 68 254 2.6 7.0 0.00 0.00 0.00 64 1010.4
20260505152003 68 231 3.5 9.6 0.00 0.00 0.00 63 1010.2
20260505151503 68 210 4.3 13.9 0.00 0.00 0.00 64 1010.3
20260505151003 68 217 3.5 13.9 0.00 0.00 0.00 65 1010.3
20260505150503 67 249 3.5 7.0 0.00 0.00 0.00 66 1010.3
20260505140503 68 201 6.1 16.5 0.00 0.00 0.00 65 1009.6
20260505125003 64 199 6.1 16.5 0.00 0.00 0.00 68 1009.9
20260505124503 64 193 7.0 16.5 0.00 0.00 0.00 67 1009.8
20260505124003 64 197 6.1 13.9 0.00 0.00 0.00 67 1009.8
20260505123003 64 195 7.0 21.7 0.00 0.00 0.00 67 1009.6
20260505122503 64 200 7.0 16.5 0.00 0.00 0.00 66 1009.4
20260505122003 64 202 7.0 16.5 0.00 0.00 0.00 66 1009.3
20260505121503 64 202 7.0 15.6 0.00 0.00 0.00 65 1009.0
20260505121218 64 197 6.1 14.8 0.00 0.00 0.00 65 1009.0
20260505120503 65 197 7.0 19.1 0.00 0.00 0.00 64 1008.8
20260505120003 65 196 7.8 19.1 0.00 0.00 0.00 63 1008.6
20260505115503 65 194 7.8 20.9 0.00 0.00 0.00 63 1008.8
20260505115003 65 198 6.1 20.9 0.00 0.00 0.00 62 1008.9
20260505114503 65 198 4.3 10.4 0.00 0.00 0.00 63 1008.8
20260505114003 65 195 5.2 10.4 0.00 0.00 0.00 63 1008.7
20260505113503 65 202 5.2 10.4 0.00 0.00 0.00 63 1008.7
20260505113003 65 200 5.2 13.9 0.00 0.00 0.00 62 1008.8
20260505112503 65 195 5.2 13.9 0.00 0.00 0.00 62 1008.8
20260505112003 65 198 5.2 13.9 0.00 0.00 0.00 63 1008.8
20260505111503 65 199 5.2 13.9 0.00 0.00 0.00 62 1008.7
20260505111217 65 200 6.1 13.0 0.00 0.00 0.00 62 1008.6
20260505110503 66 202 4.3 10.4 0.00 0.00 0.00 62 1008.6
20260505110217 66 209 3.5 12.2 0.00 0.00 0.00 63 1008.6
20260505102003 66 220 4.3 13.0 0.00 0.00 0.00 61 1008.0
20260505101503 66 211 3.5 9.6 0.00 0.00 0.00 62 1008.0
20260505101003 66 208 3.5 11.3 0.00 0.00 0.00 61 1007.9
20260505100718 67 207 4.3 13.9 0.00 0.00 0.00 62 1007.8
20260505100003 67 200 5.2 15.6 0.00 0.00 0.00 61 1007.7
20260505095503 67 207 5.2 13.9 0.00 0.00 0.00 61 1007.6
20260505095003 67 208 6.1 13.9 0.00 0.00 0.00 61 1007.5
20260505094503 67 207 5.2 13.0 0.00 0.00 0.00 61 1007.5
20260505094003 67 200 5.2 13.9 0.00 0.00 0.00 61 1007.4
20260505093503 67 194 4.3 13.9 0.00 0.00 0.00 60 1007.3
20260505093003 67 197 5.2 13.0 0.00 0.00 0.00 60 1007.2
20260505092718 67 203 6.1 13.9 0.00 0.00 0.00 59 1007.1